Zurück zum Katalog

STARLINK-1513

AktivKommunikationVLEO
NORAD 45786·PAYLOAD·🇺🇸 United States

Gestartet Jun 13, 2020 von Cape Canaveral Space Force Station

Loading…

Nächste Überflüge (nächste 24 Stunden)

TLE

AktuellSource: CelesTrak SupGP

Epoche: Sep 14, 2026, 20:57 UTC

1 45786C 20038BJ  26257.87340278  .00057402  00000+0  16398-2 0  2577
2 45786  53.1580  30.0013 0001477 316.7924 355.9532 15.35417249    16

Verfolge STARLINK-1513 in Echtzeit mit AllMySat

Download on the App Store